Location: Newark
(41.6500°N, 71.4833°W)
Time: 01:00:56
(UTC+00:00)

deb Explorer IX - Pass Details

Date: 29 January 2020
Orbit: 549 x 1099 km, 38.8° (Epoch: 20 February)

Event Time Altitude Azimuth Distance (km) Brightness Sun altitude
Rises 22:57:29 0° 200° (SSW) 3,354 ? -11.5°
Reaches altitude 10° 23:00:40 10° 182° (S) 2,532 ? -12.1°
Maximum altitude 23:04:40 18° 141° (SE) 2,127 ? -12.8°
Enters shadow 23:07:57 13° 108° (ESE) 2,542 ? -13.4°
Drops below altitude 10° 23:08:59 10° 101° (E) 2,777 - -13.6°
Sets 23:12:41 0° 84° (E) 3,810 - -14.3°
